Flag for Mexico Weather past 2 weeks in Merida, Yucatán, Mexico

Now
108 °F

Sunny.


Feels Like: 108 °F
Forecast: N/A
Wind: 16 mph from Southeast

Location: Aerop. Internacional Merida - Yuc

Current Time: Apr 26, 2015 at 4:50:49 PM

Latest Report: Apr 26, 2015 at 2:47 PM


Visibility: 7 mi

Pressure: 29.66 "Hg

Humidity: 20%

Dew point: 59 °F

Location of MeridaLocation

Historic Weather in Merida — Graph

°F

Merida temperature yesterday

Maximum temperature yesterday: 108 °F (at 3:48 PM)
Minimum temperature yesterday: 75 °F (at 4:51 AM)
Average temperature yesterday: 88 °F

Past Weeks' High & Low Weather Summary

 TemperatureHumidityPressure
High108 °F (Apr 25, 3:48 PM)94% (Apr 15, 6:47 AM)30.04 "Hg (Apr 15, 6:47 AM)
Low73 °F (Apr 15, 6:47 AM)20% (Apr 26, 2:47 PM)29.66 "Hg (Apr 26, 2:47 PM)
Average87 °F60%29.87 "Hg
* Reported Apr 11 2:46 PM — Apr 26 2:47 PM, Merida, Weather by CustomWeather, © 2015

Note: Actual official high and low records may vary slightly from our data, if they occured in-between our weather recording intervals... More about our weather records

Advertising

Merida weather history for previous 24 hours

 ConditionsComfort  
Time TempWeatherWind HumidityBarometerVisibility
2:47 PM
Sun, Apr 26
108 °FSunny.16 mph20%29.66 "Hg7 mi
1:48 PM106 °FSunny.18 mph26%29.69 "Hg7 mi
12:45 PM102 °FSunny.25 mph29%29.74 "Hg7 mi
11:48 AM99 °FSunny.21 mph35%29.75 "Hg7 mi
10:45 AM93 °FSunny.21 mph44%29.79 "Hg7 mi
9:44 AM90 °FSunny.25 mph55%29.77 "Hg7 mi
8:46 AM84 °FSunny.30 mph66%29.79 "Hg7 mi
7:48 AM79 °FSunny.13 mph79%29.89 "Hg7 mi
6:45 AM77 °FClear.15 mph83%29.80 "Hg7 mi
5:45 AM77 °FClear.12 mph83%29.78 "Hg7 mi
3:48 AM79 °FClear.17 mph74%29.77 "Hg7 mi
2:44 AM82 °FClear.9 mph62%29.76 "Hg7 mi
1:44 AM84 °FClear.12 mph55%29.78 "Hg7 mi
12:49 AM86 °FClear.14 mph52%29.80 "Hg7 mi
11:46 PM
Sat, Apr 25
88 °FClear.13 mph49%29.81 "Hg7 mi
10:43 PM90 °FClear.9 mph52%29.81 "Hg7 mi
9:42 PM86 °FClear.5 mph66%29.88 "Hg7 mi
7:51 PM88 °FSunny.7 mph59%29.76 "Hg7 mi
6:51 PM91 °FPassing clouds.7 mph56%29.75 "Hg7 mi
5:49 PM97 °FPassing clouds.12 mph47%29.72 "Hg7 mi
5:21 PM100 °FPassing clouds.12 mph40%29.72 "Hg7 mi
Weather by CustomWeather, © 2015

See weather overviewHow to use our weather pages